Change the Weather History Date:

Thursday, October 31, 2013

  Actual Average Record
Temperature  
Mean Temperature 48 °F -  
Max Temperature 53 °F 48 °F 66 °F (2014)
Min Temperature 42 °F 36 °F 32 °F (1998)
Degree Days  
Heating Degree Days 18    
Moisture  
Dew Point 42 °F    
Average Humidity 83    
Maximum Humidity 93    
Minimum Humidity 67    
Precipitation  
Precipitation 0.00 in 0.08 in - ()
Sea Level Pressure  
Sea Level Pressure 29.67 in    
Wind  
Wind Speed 12 mph ()    
Max Wind Speed 26 mph    
Max Gust Speed 39 mph    
Visibility 6.2 miles    
Events Rain    
Averages and records for this station are not official NWS values.
T = Trace of Precipitation, MM = Missing Value Source: Averaged Metar Reports

Daily Weather History Graph

Daily Weather History Graph

Search for Another Location

Airport or City:

Trip Planner

Search our weather history database for the weather conditions in past years. The results will help you decide how hot, cold, wet, or windy it might be!

Date:

Astronomy

Oct. 31, 2013 Rise Set
Actual Time 7:18 AM GMT 4:34 PM GMT
Civil Twilight 6:38 AM GMT 5:14 PM GMT
Nautical Twilight 5:54 AM GMT 5:58 PM GMT
Astronomical Twilight 5:11 AM GMT 6:41 PM GMT
Moon 3:19 AM GMT (10/31) 3:12 PM GMT (10/31)
Length of Visible Light 10h 35m
Length of Day
9h 16m
Waning Crescent, 11% of the Moon is Illuminated
Oct 31
Waning Crescent
Nov 3
New
Nov 10
First Quarter
Nov 17
Full
Nov 25
Last Quarter

Hourly Weather History & Observations

Time (GMT) Temp. Windchill Dew Point Humidity Pressure Visibility Wind Dir Wind Speed Gust Speed Precip Events Conditions
12:20 AM 42.8 °F 38.0 °F 41.0 °F 93% 29.80 in - WSW 8.1 mph - N/A   Clear
12:50 AM 44.6 °F 42.2 °F 41.0 °F 87% 29.80 in 6.2 mi SW 4.6 mph - N/A   Partly Cloudy
1:20 AM 44.6 °F 40.2 °F 41.0 °F 87% 29.80 in - SSW 8.1 mph - N/A   Clear
1:50 AM 44.6 °F 40.2 °F 41.0 °F 87% 29.80 in - SSW 8.1 mph - N/A   Clear
2:20 AM 42.8 °F 38.0 °F 39.2 °F 87% 29.80 in - SW 8.1 mph - N/A   Clear
2:50 AM 44.6 °F 38.1 °F 41.0 °F 87% 29.80 in - SW 13.8 mph - N/A   Clear
3:20 AM 42.8 °F 37.5 °F 41.0 °F 93% 29.77 in - SW 9.2 mph - N/A   Clear
3:50 AM 44.6 °F 38.4 °F 41.0 °F 87% 29.77 in - SW 12.7 mph - N/A   Clear
4:20 AM 44.6 °F 40.2 °F 41.0 °F 87% 29.77 in - SW 8.1 mph - N/A   Clear
4:50 AM 44.6 °F 39.2 °F 41.0 °F 87% 29.77 in - SSW 10.4 mph - N/A   Clear
5:20 AM 42.8 °F 38.6 °F 39.2 °F 87% 29.77 in - SW 6.9 mph - N/A   Clear
5:50 AM 44.6 °F 39.7 °F 41.0 °F 87% 29.77 in - SW 9.2 mph - N/A   Clear
6:20 AM 46.4 °F 40.1 °F 41.0 °F 81% 29.74 in - SSW 15.0 mph - N/A   Clear
6:50 AM 46.4 °F 40.7 °F 41.0 °F 81% 29.74 in - SW 12.7 mph - N/A   Clear
7:20 AM 46.4 °F 40.1 °F 41.0 °F 81% 29.71 in - SW 15.0 mph - N/A   Clear
7:50 AM 46.4 °F 40.4 °F 41.0 °F 81% 29.71 in - SW 13.8 mph - N/A   Clear
8:20 AM 48.2 °F - 41.0 °F 76% 29.71 in - SSW 16.1 mph - N/A   Clear
8:50 AM 48.2 °F - 42.8 °F 82% 29.71 in - SSW 16.1 mph - N/A   Clear
9:20 AM 50.0 °F - 42.8 °F 76% 29.68 in - SW 16.1 mph - N/A   Clear
9:50 AM 50.0 °F - 44.6 °F 82% 29.68 in 6.2 mi SW 19.6 mph - N/A   Partly Cloudy
10:20 AM 51.8 °F - 44.6 °F 76% 29.68 in 6.2 mi SW 19.6 mph - N/A   Partly Cloudy
10:50 AM 53.6 °F - 44.6 °F 72% 29.65 in 6.2 mi SW 23.0 mph 34.5 mph N/A   Partly Cloudy
11:20 AM 53.6 °F - 44.6 °F 72% 29.65 in 6.2 mi SW 26.5 mph - N/A   Partly Cloudy
11:50 AM 53.6 °F - 44.6 °F 72% 29.65 in 6.2 mi SW 20.7 mph - N/A   Scattered Clouds
12:20 PM 53.6 °F - 44.6 °F 72% 29.65 in 6.2 mi SW 19.6 mph - N/A   Scattered Clouds
12:50 PM 53.6 °F - 42.8 °F 67% 29.65 in 6.2 mi WSW 21.9 mph - N/A   Mostly Cloudy
1:20 PM 53.6 °F - 42.8 °F 67% 29.65 in 6.2 mi SW 19.6 mph - N/A   Scattered Clouds
1:50 PM 53.6 °F - 44.6 °F 72% 29.62 in 6.2 mi SW 21.9 mph - N/A   Scattered Clouds
2:20 PM 51.8 °F - 42.8 °F 71% 29.62 in 6.2 mi SW 20.7 mph - N/A   Scattered Clouds
2:50 PM 51.8 °F - 42.8 °F 71% 29.62 in 6.2 mi SW 17.3 mph - N/A   Scattered Clouds
3:20 PM 51.8 °F - 42.8 °F 71% 29.59 in 6.2 mi SW 16.1 mph - N/A   Mostly Cloudy
3:50 PM 50.0 °F - 42.8 °F 76% 29.59 in - SW 26.5 mph 39.1 mph N/A Rain Rain Showers
4:20 PM 46.4 °F 38.7 °F 44.6 °F 93% 29.59 in 5.0 mi WSW 20.7 mph 33.4 mph N/A Rain Rain Showers
4:50 PM 44.6 °F 37.2 °F 42.8 °F 93% 29.62 in 6.2 mi West 17.3 mph 28.8 mph N/A Rain Light Rain Showers
5:20 PM 42.8 °F 37.0 °F 41.0 °F 93% 29.62 in 6.2 mi SW 10.4 mph - N/A   Scattered Clouds
5:50 PM 42.8 °F 37.0 °F 41.0 °F 93% 29.62 in 6.2 mi SW 10.4 mph - N/A   Partly Cloudy
6:20 PM 44.6 °F 38.4 °F 41.0 °F 87% 29.59 in 6.2 mi SW 12.7 mph - N/A   Partly Cloudy
6:50 PM 44.6 °F 38.1 °F 41.0 °F 87% 29.59 in 6.2 mi SW 13.8 mph - N/A   Partly Cloudy
7:20 PM 44.6 °F 37.8 °F 41.0 °F 87% 29.59 in 6.2 mi SW 15.0 mph - N/A   Partly Cloudy
7:50 PM 44.6 °F 37.8 °F 41.0 °F 87% 29.59 in 6.2 mi SW 15.0 mph - N/A   Partly Cloudy
8:20 PM 44.6 °F 37.8 °F 41.0 °F 87% 29.62 in 6.2 mi SW 15.0 mph - N/A   Partly Cloudy
8:50 PM 44.6 °F 37.8 °F 41.0 °F 87% 29.62 in 6.2 mi SW 15.0 mph - N/A Rain Light Rain Showers
9:20 PM 44.6 °F 38.4 °F 41.0 °F 87% 29.59 in 6.2 mi SW 12.7 mph - N/A Rain Light Rain Showers
9:50 PM 44.6 °F 38.4 °F 39.2 °F 81% 29.59 in 6.2 mi SW 12.7 mph - N/A   Partly Cloudy
10:20 PM 44.6 °F 37.8 °F 41.0 °F 87% 29.59 in - WSW 15.0 mph - N/A   Clear
10:50 PM 44.6 °F 37.2 °F 41.0 °F 87% 29.59 in - SW 17.3 mph - N/A   Clear
11:20 PM 44.6 °F 36.9 °F 41.0 °F 87% 29.59 in - SW 18.4 mph - N/A   Clear
11:50 PM 44.6 °F 36.9 °F 41.0 °F 87% 29.59 in 6.2 mi SW 18.4 mph - N/A Rain Light Rain